timestamp,surface_pressure_avg,surface_temp_avg,battery_voltage,lat,long
2020-07-25 00:09:01+00:00,273.6481,15.0,12.73,47.84626,-54.09684
2020-07-25 00:19:01+00:00,282.4197,15.0,12.65,47.84626,-54.09684
2020-07-25 00:29:01+00:00,291.7897,14.2,12.65,47.84626,-54.09684
2020-07-25 00:39:01+00:00,301.1597,14.1,12.65,47.84626,-54.09684
2020-07-25 00:49:01+00:00,309.3314,13.82,12.65,47.84626,-54.09684
2020-07-25 00:59:01+00:00,318.3997,13.79,12.65,47.84626,-54.09684
2020-07-25 01:09:01+00:00,322.2346,14.03,12.65,47.84626,-54.09684
2020-07-25 01:19:01+00:00,327.2963,13.89,12.65,47.84626,-54.09684
2020-07-25 01:29:01+00:00,334.8929,13.6,12.65,47.84626,-54.09684
2020-07-25 01:39:01+00:00,341.4815,13.8,12.65,47.84626,-54.09684
2020-07-25 01:49:01+00:00,342.6979,13.8,12.65,47.84626,-54.09684
2020-07-25 01:59:01+00:00,344.5513,13.69,12.65,47.84626,-54.09684
2020-07-25 02:09:01+00:00,353.0613,13.5,12.65,47.84626,-54.09684
2020-07-25 02:19:01+00:00,358.2179,13.5,12.65,47.84626,-54.09684
2020-07-25 02:29:01+00:00,358.4529,13.4,12.65,47.84626,-54.09684
2020-07-25 02:39:01+00:00,363.1912,13.3,12.65,47.84626,-54.09684
2020-07-25 02:49:01+00:00,369.093,13.3,12.65,47.84626,-54.09684
2020-07-25 02:59:01+00:00,364.168,13.58,12.65,47.84626,-54.09684
2020-07-25 03:09:01+00:00,360.5212,13.77,12.65,47.84626,-54.09684
2020-07-25 03:19:01+00:00,360.848,13.6,12.65,47.84626,-54.09684
2020-07-25 03:29:01+00:00,357.908,13.64,12.65,47.84626,-54.09684
2020-07-25 03:39:01+00:00,354.5131,13.9,12.65,47.84626,-54.09684
2020-07-25 03:49:01+00:00,355.8047,13.9,12.65,47.84626,-54.09684
2020-07-25 03:59:01+00:00,356.1296,13.8,12.65,47.84626,-54.09684
2020-07-25 04:09:01+00:00,351.4913,14.2,12.65,47.84626,-54.09684
2020-07-25 04:19:01+00:00,347.5914,14.4,12.65,47.84626,-54.09684
2020-07-25 04:29:01+00:00,345.9446,14.2,12.65,47.84626,-54.09684
2020-07-25 04:39:01+00:00,339.6296,14.37,12.65,47.84626,-54.09684
2020-07-25 04:49:01+00:00,330.6646,14.69,12.65,47.84626,-54.09684
2020-07-25 04:59:01+00:00,325.563,14.6,12.65,47.84626,-54.09684
2020-07-25 05:09:01+00:00,318.918,14.5,12.65,47.84626,-54.09684
2020-07-25 05:19:01+00:00,309.0813,14.72,12.57,47.84626,-54.09684
2020-07-25 05:29:01+00:00,303.7247,14.9,12.57,47.84626,-54.09684
2020-07-25 05:39:01+00:00,298.9263,14.8,12.57,47.84626,-54.09684
2020-07-25 05:49:01+00:00,289.8114,14.83,12.57,47.84626,-54.09684
2020-07-25 05:59:01+00:00,280.108,15.08,12.57,47.84626,-54.09684
2020-07-25 06:09:01+00:00,271.6431,15.3,12.57,47.84626,-54.09684
2020-07-25 06:19:01+00:00,258.7147,15.3,12.57,47.84626,-54.09684
2020-07-25 06:29:01+00:00,247.7981,15.3,12.57,47.84626,-54.09684
2020-07-25 06:39:01+00:00,240.8597,15.37,12.57,47.84626,-54.09684
2020-07-25 06:49:01+00:00,231.1664,15.36,12.57,47.84626,-54.09684
2020-07-25 06:59:01+00:00,221.0081,15.4,12.57,47.84626,-54.09684
2020-07-25 07:09:01+00:00,215.8714,15.3,12.57,47.84626,-54.09684
2020-07-25 07:19:01+00:00,212.6331,15.2,12.57,47.84626,-54.09684
2020-07-25 07:29:01+00:00,204.8981,15.1,12.57,47.84626,-54.09684
2020-07-25 07:39:01+00:00,194.3348,15.1,12.57,47.84626,-54.09684
2020-07-25 07:49:01+00:00,190.4248,15.1,12.57,47.84626,-54.09684
2020-07-25 07:59:01+00:00,187.6548,15.02,12.57,47.84626,-54.09684
2020-07-25 08:09:01+00:00,178.8365,15.05,12.57,47.84626,-54.09684
2020-07-25 08:19:01+00:00,174.9115,15.0,12.57,47.84626,-54.09684
2020-07-25 08:29:01+00:00,177.6599,15.0,12.57,47.84626,-54.09684
2020-07-25 08:39:01+00:00,177.7031,14.9,12.57,47.84626,-54.09684
2020-07-25 08:49:01+00:00,175.2581,14.85,12.57,47.84626,-54.09684
2020-07-25 08:59:01+00:00,176.1881,14.8,12.57,47.84626,-54.09684
2020-07-25 09:09:01+00:00,179.3665,14.8,12.57,47.84626,-54.09684
2020-07-25 09:19:01+00:00,179.8198,14.8,12.57,47.84626,-54.09684
2020-07-25 09:29:01+00:00,185.1548,14.86,12.57,47.84626,-54.09684
2020-07-25 09:39:01+00:00,190.5865,14.88,12.57,47.84626,-54.09684
2020-07-25 09:49:01+00:00,191.4232,14.87,12.57,47.84626,-54.09684
2020-07-25 09:59:01+00:00,195.3531,14.89,12.57,47.84626,-54.09684
2020-07-25 10:09:01+00:00,201.8131,14.85,12.57,47.84626,-54.09684
2020-07-25 10:19:01+00:00,205.0914,14.82,12.65,47.84626,-54.09684
2020-07-25 10:29:01+00:00,208.9931,14.8,12.65,47.84626,-54.09684
2020-07-25 10:39:01+00:00,216.7764,14.8,12.65,47.84626,-54.09684
2020-07-25 10:49:01+00:00,217.9481,14.87,12.65,47.84626,-54.09684
2020-07-25 10:59:01+00:00,214.6981,14.9,12.65,47.84626,-54.09684
2020-07-25 11:09:01+00:00,221.2164,14.96,12.65,47.84626,-54.09684
2020-07-25 11:19:01+00:00,228.2797,14.9,12.81,47.84626,-54.09684
2020-07-25 11:29:01+00:00,227.7765,14.9,12.81,47.84626,-54.09684
2020-07-25 11:39:01+00:00,228.0898,14.9,12.81,47.84626,-54.09684
2020-07-25 11:49:01+00:00,236.9348,14.8,12.81,47.84626,-54.09684
2020-07-25 11:59:01+00:00,243.7081,14.7,12.81,47.84626,-54.09684
2020-07-25 12:09:01+00:00,245.3647,14.6,12.81,47.84626,-54.09684
2020-07-25 12:19:01+00:00,252.6014,14.5,13.05,47.84626,-54.09684
2020-07-25 12:29:01+00:00,263.6964,14.47,13.05,47.84626,-54.09684
2020-07-25 12:39:01+00:00,270.8214,14.52,13.05,47.84626,-54.09684
2020-07-25 12:49:01+00:00,274.4147,14.7,13.05,47.84626,-54.09684
2020-07-25 12:59:01+00:00,284.608,14.2,13.05,47.84626,-54.09684
2020-07-25 13:09:01+00:00,297.0597,14.1,13.05,47.84626,-54.09684
2020-07-25 13:19:01+00:00,305.1163,14.19,13.29,47.84626,-54.09684
2020-07-25 13:29:01+00:00,311.2814,14.2,13.29,47.84626,-54.09684
2020-07-25 13:39:01+00:00,322.1996,14.2,13.29,47.84626,-54.09684
2020-07-25 13:49:01+00:00,329.9380000000001,14.2,13.29,47.84626,-54.09684
2020-07-25 13:59:01+00:00,332.9847,14.2,13.29,47.84626,-54.09684
2020-07-25 14:09:01+00:00,338.0212,14.2,13.29,47.84626,-54.09684
2020-07-25 14:19:01+00:00,341.3097,14.2,13.53,47.84626,-54.09684
2020-07-25 14:29:01+00:00,343.0964,14.2,13.53,47.84626,-54.09684
2020-07-25 14:39:01+00:00,344.4612,14.2,13.53,47.84626,-54.09684
2020-07-25 14:49:01+00:00,348.2379,14.1,13.53,47.84626,-54.09684
2020-07-25 14:59:01+00:00,349.6712,14.1,13.53,47.84626,-54.09684
2020-07-25 15:09:01+00:00,344.9597,14.1,13.53,47.84626,-54.09684
2020-07-25 15:19:01+00:00,343.3695,14.2,14.0,47.84626,-54.09684
2020-07-25 15:29:01+00:00,347.548,14.2,14.0,47.84626,-54.09684
2020-07-25 15:39:01+00:00,348.9812,14.26,14.0,47.84626,-54.09684
2020-07-25 15:49:01+00:00,344.92800000000005,14.1,14.0,47.84626,-54.09684
2020-07-25 15:59:01+00:00,343.1446,14.12,14.0,47.84626,-54.09684
2020-07-25 16:09:01+00:00,345.1113,14.2,14.0,47.84626,-54.09684
2020-07-25 16:19:01+00:00,339.7764,14.4,14.16,47.84626,-54.09684
2020-07-25 16:29:01+00:00,332.158,14.4,14.16,47.84626,-54.09684
2020-07-25 16:39:01+00:00,334.4714,14.1,14.16,47.84626,-54.09684
2020-07-25 16:49:01+00:00,333.9913,14.23,14.16,47.84626,-54.09684
2020-07-25 16:59:01+00:00,325.8664,14.5,14.16,47.84626,-54.09684
2020-07-25 17:09:01+00:00,318.2897,14.5,14.16,47.84626,-54.09684
2020-07-25 17:19:01+00:00,315.493,14.49,14.08,47.84626,-54.09684
2020-07-25 17:29:01+00:00,309.013,14.3,14.08,47.84626,-54.09684
2020-07-25 17:39:01+00:00,298.2997,14.1,14.08,47.84626,-54.09684
2020-07-25 17:49:01+00:00,287.6931,14.1,14.08,47.84626,-54.09684
2020-07-25 17:59:01+00:00,281.048,14.1,14.08,47.84626,-54.09684
2020-07-25 18:09:01+00:00,273.9614,14.17,14.08,47.84626,-54.09684
2020-07-25 18:19:01+00:00,263.4514,14.3,14.16,47.84626,-54.09684
2020-07-25 18:29:01+00:00,256.3864,14.4,14.16,47.84626,-54.09684
2020-07-25 18:39:01+00:00,251.808,14.5,14.16,47.84626,-54.09684
2020-07-25 18:49:01+00:00,244.3114,14.59,14.16,47.84626,-54.09684
2020-07-25 18:59:01+00:00,232.2514,14.6,14.16,47.84626,-54.09684
2020-07-25 19:09:01+00:00,224.8181,14.6,14.16,47.84626,-54.09684
2020-07-25 19:19:01+00:00,216.1131,14.64,14.0,47.84626,-54.09684
2020-07-25 19:29:01+00:00,206.2831,14.73,14.0,47.84626,-54.09684
2020-07-25 19:39:01+00:00,199.6998,14.8,14.0,47.84626,-54.09684
2020-07-25 19:49:01+00:00,196.0098,14.8,14.0,47.84626,-54.09684
2020-07-25 19:59:01+00:00,188.4932,14.8,14.0,47.84626,-54.09684
2020-07-25 20:09:01+00:00,181.3148,14.76,14.0,47.84626,-54.09684
2020-07-25 20:19:01+00:00,182.8748,14.7,13.68,47.84626,-54.09684
2020-07-25 20:29:01+00:00,181.5315,14.7,13.68,47.84626,-54.09684
2020-07-25 20:39:01+00:00,176.7865,14.84,13.68,47.84626,-54.09684
2020-07-25 20:49:01+00:00,179.8132,14.9,13.68,47.84626,-54.09684
2020-07-25 20:59:01+00:00,183.1064,14.9,13.68,47.84626,-54.09684
2020-07-25 21:09:01+00:00,176.9998,14.9,13.68,47.84626,-54.09684
2020-07-25 21:19:01+00:00,174.0898,14.92,13.29,47.84626,-54.09684
2020-07-25 21:29:01+00:00,180.8098,14.96,13.29,47.84626,-54.09684
2020-07-25 21:39:01+00:00,185.3998,14.96,13.29,47.84626,-54.09684
2020-07-25 21:49:01+00:00,187.0081,14.94,13.29,47.84626,-54.09684
2020-07-25 21:59:01+00:00,190.9631,14.94,13.29,47.84626,-54.09684
2020-07-25 22:09:01+00:00,197.6931,14.94,13.29,47.84626,-54.09684
2020-07-25 22:19:01+00:00,202.5865,14.96,12.97,47.84626,-54.09684
2020-07-25 22:29:01+00:00,207.6781,14.97,12.97,47.84626,-54.09684
2020-07-25 22:39:01+00:00,211.7298,15.0,12.97,47.84626,-54.09684
2020-07-25 22:49:01+00:00,213.5997,15.1,12.97,47.84626,-54.09684
2020-07-25 22:59:01+00:00,214.8315,15.2,12.97,47.84626,-54.09684
2020-07-25 23:09:01+00:00,217.2197,15.29,12.97,47.84626,-54.09684
2020-07-25 23:19:01+00:00,221.0681,15.3,12.81,47.84626,-54.09684
2020-07-25 23:29:01+00:00,223.4481,15.34,12.81,47.84626,-54.09684
2020-07-25 23:39:01+00:00,223.9064,15.39,12.81,47.84626,-54.09684
2020-07-25 23:49:01+00:00,225.6797,15.39,12.81,47.84626,-54.09684
2020-07-25 23:59:01+00:00,231.6765,15.35,12.81,47.84626,-54.09684
